Location: ????????
(55.3939°N, 37.4780°E)
Time: 20:41:30
(UTC+00:00)

DNEPR-1 R/B - Pass Details

Date: 14 April 2026
Orbit: 582 x 1331 km, 64.6° (Epoch: 11 May)

Event Time Altitude Azimuth Distance (km) Brightness Sun altitude
Rises 19:07:48 0° 225° (SW) 2,798 6.8 -18.5°
Reaches altitude 10° 19:09:58 10° 225° (SW) 1,901 6.0 -18.7°
Maximum altitude 19:14:10 87° 139° (SE) 611 3.4 -19.0°
Drops below altitude 10° 19:18:44 10° 49° (NE) 2,067 6.3 -19.4°
Sets 19:21:11 0° 49° (NE) 3,068 7.2 -19.6°
